Lexington Weather

Lexington, Massachusetts, USA

44°F
9/19/2020 7:59am 
  • Lexington Conditions: Clear
  • Temperature: 43.5°F / 6.4°CWarmer 0.5°F than last hour.
  • Dew Point: 35.8°FIncreased 0.2°Fsince last hour.
  • Relative Humidity: 74%Decreased 1.0% since last hour.
  • Wind: Wind from NNE NNE 1 mph, 10-min avg: 1 mph, gust: 2 mph
  • Barometer: 30.24 inRising 0.03  inHg/hr Rising Slowly
  • Visibility: 10 miles
  • Rain Today: 0.00 in
  •   
Southeast Middlesex County - Special Weather Statement
 - SEE ALL NEARBY ALERTS -

Regional Weather Roundup
for Boston / Norton, MA

        
000
ASUS41 KBOX 191004
RWRBOX

REGIONAL WEATHER ROUNDUP
NATIONAL WEATHER SERVICE BOSTON/NORTON MA
600 AM EDT SAT SEP 19 2020

NOTE:  "FAIR" INDICATES FEW OR NO CLOUDS BELOW 12,000 FEET WITH NO 
SIGNIFICANT WEATHER AND/OR OBSTRUCTIONS TO VISIBILITY.

MAZALL-191100-
EASTERN MASSACHUSETTS
  
CITY           SKY/WX    TMP DP  RH WIND       PRES   REMARKS
BOSTON         PTCLDY    46  30  53 NW9G16    30.22R                  
BEVERLY        CLEAR     43  32  65 NW8       30.21R                  
LAWRENCE       CLEAR     42  33  70 N5        30.25R                  
BEDFORD        CLEAR     41  30  65 NW6       30.22R                  
BLUE HILL        N/A     44  29  55 N13G20    30.19R                  
NORWOOD        CLEAR     46  30  53 N5        30.22R                  
MARSHFIELD     MOCLDY    54  43  66 VRB7G15   30.19R                  
PLYMOUTH       CLEAR     46  37  71 N8        30.19R                  
TAUNTON        CLEAR     45  33  63 NW3       30.20R                  
NEW BEDFORD    CLEAR     44  34  67 VRB3      30.18R                  
$$

MAZALL-191100-
CAPE COD AND THE ISLANDS
  
CITY           SKY/WX    TMP DP  RH WIND       PRES   REMARKS
FALMOUTH       MOCLDY    54  37  54 NE13G23   30.16R                  
HYANNIS        PTCLDY    55  40  56 N15G22    30.14R                  
CHATHAM        PTCLDY    56  40  55 N10G22    30.15R                  
PROVINCETOWN   CLEAR     55  40  56 NE20G25   30.18R                  
NANTUCKET      CLEAR     56  41  57 NE24      30.13R                  
MARTHAS VNYRD  CLEAR     55  40  56 N14G24    30.16R                  
$$
 
MAZALL-191100-
CENTRAL AND WESTERN MASSACHUSETTS
  
CITY           SKY/WX    TMP DP  RH WIND       PRES   REMARKS
WORCESTER      CLEAR     43  27  53 N10       30.22R                  
FITCHBURG      CLEAR     39  29  67 N6        30.25R                  
ORANGE         CLEAR     33  31  92 CALM      30.27R                  
SPRINGFIELD    CLEAR     35  31  87 CALM      30.25R                  
WESTFIELD      CLEAR     33  31  92 CALM      30.26R                  
NORTH ADAMS    CLEAR     31  28  89 CALM      30.30R                  
PITTSFIELD     CLEAR     36  31  82 CALM      30.26R                  
$$
 
RIZALL-191100-
RHODE ISLAND
  
CITY           SKY/WX    TMP DP  RH WIND       PRES   REMARKS
PROVIDENCE     PTCLDY    46  31  55 N8        30.22R                  
NEWPORT        CLEAR     49  32  52 N13G22    30.19R                  
BLOCK ISLAND   CLEAR     49  35  58 N16G23    30.19R                  
SMITHFIELD     CLEAR     42  31  64 N5        30.22R                  
WESTERLY       CLEAR     45  30  55 N9        30.21R                  
$$
 
CTZALL-191100-
CONNECTICUT
  
CITY           SKY/WX    TMP DP  RH WIND       PRES   REMARKS
BRADLEY INTL   CLEAR     39  30  70 N6        30.26R                  
HARTFORD       CLEAR     45  30  55 N7        30.26R                  
BRIDGEPORT     CLEAR     47  32  56 N9        30.24R                  
DANBURY        CLEAR     43  31  62 CALM      30.27R                  
GROTON         CLEAR     46  31  55 N13       30.21R                  
NEW HAVEN      CLEAR     48  32  53 N15G23    30.24R                  
CHESTER        NOT AVBL                                               
MERIDEN        CLEAR     45  30  55 N5        30.26R                  
WILLIMANTIC    CLEAR     42  31  64 N5        30.25R                  
OXFORD         CLEAR     39  31  72 N9        30.25R                  
$$

MEZ002-015-021-024-NHZ003-005-008-011-012-014-VTZ005-008-191100-
NORTHERN NEW ENGLAND
  
CITY           SKY/WX    TMP DP  RH WIND       PRES   REMARKS
PORTLAND ME    CLEAR     45  32  60 NW7       30.23R                  
BANGOR ME      CLEAR     33  29  85 CALM      30.20R                  
CONCORD NH     CLEAR     31  28  89 CALM      30.25R                  
MANCHESTER NH  CLEAR     43  31  62 CALM      30.23R                  
NASHUA NH      CLEAR     37  32  82 NW6       30.25R                  
PORTSMOUTH NH  CLEAR     39  29  66 NW8       30.21R                  
JAFFREY NH     CLEAR     32  29  88 CALM      30.24R                  
KEENE NH       CLEAR     29  28  96 CALM      30.28R                  
BURLINGTON VT  CLEAR     35  32  88 CALM      30.32R                  
MT. WASHINGTON PTCLDY    19  16  86 N30G43      N/A  WCI   0          
$$

NYZ052-076-191100-
EASTERN NEW YORK
  
CITY           SKY/WX    TMP DP  RH WIND       PRES   REMARKS
ALBANY         CLEAR     34  32  92 N6        30.31R WCI  29          
NEW YORK CITY  PTCLDY    52  34  50 N18G25    30.25R                  
$$
 
ANZALL-191100-
MARINE OBSERVATIONS
  
STATION/POSITION TIME  TEMP    WIND        PRES    VSBY  WAVE
                       AIR SEA DIR/SP/G                  HT/PER
                 (UTC) (F)     (DEG/KT/KT) (MB)    (MI)  (FT/S)
BOSTON BUOY      0950   54 62  360/ 21/ 27 1021.0R         7/ 7
BUZZARDS BAY     0900          360/ 25/ 27 1021.6R
NANTUCKET SOUND  0950      69   20/ 21/ 25   N/A           3/ 4
MASS BAY-STELLWA 0904   54      30/ 19/ 23 1019.8R  1 7/8  8/ 8
ISLE OF SHOALS   0900   49     340/ 18/ 21 1022.0R
S OF BLOCK IS    0926      67                N/A           6/ 6
$$

......................KEY.........................
  SKY/WX - SKY CONDITION/PRESENT WEATHER
  TMP    - TEMPERATURE IN FAHRENHEIT
  DWPT   - DEWPOINT IN FAHRENHEIT
  RH     - RELATIVE HUMIDITY IN PERCENT
  WIND   - DIRECTION AND SPEED IN MPH
  PRES   - MEAN SEA LEVEL PRESSURE IN INCHES OF HG
  WCI    - WIND CHILL INDEX
  VSB    - VISIBILITY IN MILES
  HX     - HEAT INDEX
  TC     - TEMPERATURE IN CELSIUS
  VRB    - VARIABLE WIND DIRECTION
  N/A    - NOT AVAILABLE
  
      

Other recent Regional Weather Roundups

Sat Sep 19, 7:04am

Sat Sep 19, 5:04am

Sat Sep 19, 4:04am

Sat Sep 19, 3:04am

Sat Sep 19, 2:04am

Sat Sep 19, 1:04am

Sat Sep 19, 12:04am

Fri Sep 18, 11:05pm

Fri Sep 18, 10:04pm

Fri Sep 18, 9:04pm

Fri Sep 18, 8:04pm

Fri Sep 18, 7:04pm

Fri Sep 18, 6:04pm

Fri Sep 18, 5:05pm

Fri Sep 18, 4:04pm

Fri Sep 18, 3:05pm

Fri Sep 18, 2:04pm

Fri Sep 18, 1:04pm

Fri Sep 18, 12:04pm

Fri Sep 18, 11:05am

Fri Sep 18, 10:05am

Fri Sep 18, 9:04am

Fri Sep 18, 8:04am

Fri Sep 18, 7:04am

Fri Sep 18, 6:04am

Fri Sep 18, 5:04am

Fri Sep 18, 4:04am

Fri Sep 18, 3:04am

Fri Sep 18, 2:04am

Fri Sep 18, 1:04am

Fri Sep 18, 12:04am

Thu Sep 17, 11:05pm

Thu Sep 17, 10:04pm

Thu Sep 17, 9:04pm

Thu Sep 17, 8:05pm

Thu Sep 17, 7:04pm

Thu Sep 17, 6:04pm

Thu Sep 17, 5:04pm

Thu Sep 17, 4:04pm

Thu Sep 17, 3:05pm

Thu Sep 17, 2:04pm

Thu Sep 17, 1:04pm

Thu Sep 17, 12:04pm

Thu Sep 17, 11:04am

Thu Sep 17, 10:04am

Thu Sep 17, 9:04am

Thu Sep 17, 8:04am

Thu Sep 17, 7:04am

Thu Sep 17, 6:04am

Thu Sep 17, 5:04am

Thu Sep 17, 4:04am

Thu Sep 17, 3:04am

Thu Sep 17, 2:05am

Thu Sep 17, 1:05am

Thu Sep 17, 12:04am

Wed Sep 16, 11:04pm

Wed Sep 16, 10:04pm

Wed Sep 16, 9:04pm

Wed Sep 16, 8:05pm

Wed Sep 16, 7:04pm

Wed Sep 16, 6:04pm

Wed Sep 16, 5:04pm

Wed Sep 16, 4:04pm

Wed Sep 16, 3:04pm

Wed Sep 16, 2:04pm

Wed Sep 16, 1:04pm

Wed Sep 16, 12:04pm

Wed Sep 16, 11:04am

Wed Sep 16, 10:04am

Wed Sep 16, 9:04am

Wed Sep 16, 8:04am

Wed Sep 16, 7:04am

Wed Sep 16, 6:04am

Wed Sep 16, 5:04am

Wed Sep 16, 4:04am

Wed Sep 16, 3:04am

Wed Sep 16, 2:04am

Wed Sep 16, 1:04am

Wed Sep 16, 12:05am

Tue Sep 15, 11:04pm

Tue Sep 15, 10:04pm

Tue Sep 15, 9:04pm

Tue Sep 15, 8:04pm

Tue Sep 15, 7:04pm

Tue Sep 15, 6:04pm

Tue Sep 15, 5:04pm

Tue Sep 15, 4:05pm

Tue Sep 15, 3:04pm

Tue Sep 15, 2:04pm

Tue Sep 15, 1:04pm

Tue Sep 15, 12:04pm

Tue Sep 15, 11:04am

Tue Sep 15, 10:04am

Tue Sep 15, 9:04am

Tue Sep 15, 8:04am

Tue Sep 15, 7:04am

Tue Sep 15, 6:04am

Tue Sep 15, 5:04am

Tue Sep 15, 4:04am

Tue Sep 15, 3:04am

Tue Sep 15, 2:04am

Tue Sep 15, 1:04am

Tue Sep 15, 12:05am

Mon Sep 14, 11:04pm

Mon Sep 14, 10:04pm

Mon Sep 14, 9:04pm

Mon Sep 14, 8:04pm

Mon Sep 14, 7:04pm

Mon Sep 14, 6:04pm

Mon Sep 14, 5:04pm

Mon Sep 14, 4:05pm

Mon Sep 14, 3:04pm

Mon Sep 14, 2:05pm

Mon Sep 14, 1:04pm

Mon Sep 14, 12:04pm

Mon Sep 14, 11:04am

Mon Sep 14, 10:05am

Mon Sep 14, 9:04am

Mon Sep 14, 8:04am

Mon Sep 14, 7:04am

Mon Sep 14, 6:04am

Mon Sep 14, 5:04am

Mon Sep 14, 4:04am

Mon Sep 14, 3:04am

Mon Sep 14, 2:04am

Mon Sep 14, 1:04am

Mon Sep 14, 12:04am

Sun Sep 13, 11:05pm

Sun Sep 13, 10:04pm

Sun Sep 13, 9:04pm

Sun Sep 13, 8:04pm

Sun Sep 13, 7:05pm

Sun Sep 13, 6:05pm

Sun Sep 13, 5:05pm

Sun Sep 13, 4:04pm

Sun Sep 13, 3:04pm

Sun Sep 13, 2:04pm

Sun Sep 13, 1:04pm

Sun Sep 13, 12:04pm

Sun Sep 13, 11:05am

Sun Sep 13, 10:04am

Sun Sep 13, 9:04am

Sun Sep 13, 8:04am

Sun Sep 13, 7:04am

Sun Sep 13, 6:04am

Sun Sep 13, 5:04am

Sun Sep 13, 4:04am

Sun Sep 13, 3:04am

Sun Sep 13, 2:04am

Sun Sep 13, 1:04am

Sun Sep 13, 12:04am

Sat Sep 12, 11:04pm

Sat Sep 12, 10:04pm

Sat Sep 12, 9:04pm

Sat Sep 12, 8:04pm

Sat Sep 12, 7:05pm

Sat Sep 12, 6:04pm

Sat Sep 12, 5:04pm

Sat Sep 12, 4:05pm

Sat Sep 12, 3:04pm

Sat Sep 12, 2:04pm

Sat Sep 12, 1:05pm

Sat Sep 12, 12:04pm

Sat Sep 12, 11:04am

Sat Sep 12, 10:04am

Sat Sep 12, 9:04am

Sat Sep 12, 8:04am

Meta data:

ID: d18db0e8-4168-4bfa-bc4f-e66486efe866
Link: https://api.weather.gov/products/d18db0e8-4168-4bfa-bc4f-e66486efe866